Location: Unspecified
(43.4680°N, 87.1740°E)
Time: 05:10:55
(UTC+00:00)

FALCON 9 DEB - Pass Details

Date: 17 April 2021
Orbit: 368 x 386 km, 53.0° (Epoch: 16 May)

Event Time Altitude Azimuth Distance (km) Brightness Sun altitude
Rises 22:39:44 0° 303° (WNW) 2,235 6.4 -8.4°
Reaches altitude 10° 22:41:48 10° 299° (WNW) 1,385 5.3 -8.1°
Maximum altitude 22:44:50 58° 219° (SW) 443 2.9 -7.6°
Drops below altitude 10° 22:47:54 10° 139° (SE) 1,389 5.9 -7.1°
Sets 22:49:57 0° 135° (SE) 2,242 7.1 -6.7°
